LPPTLPPR

Guest
Details From LPPT - Lisboa
To LPPR - Porto
Flight Number -
Tags generated
Created
Modified
Stats Distance 154 nm / 284 km
Max Altitude 15,700 ft / 4,785 m
Waypoints 4
Social Downloads 1
Likes 0
Share VATSIM

Download

Looking for another format? Having issues loading an existing format? Contact us
Advertisement - Login to hide

Notes

Basic altitude profile: - Ascent Rate: 2500ft/min - Ascent Speed: 250kts - Cruise Altitude: 24000ft - Cruise Speed: 420kts - Descent Rate: 1500ft/min - Descent Speed: 250kts Options: - Use NATs: yes - Use PACOTS: yes - Use low airways: yes - Use high airways: yes

Route

LPPT XAMAX A5 MANIK LPPR

ID Type Via Altitude Latitude Longitude Leg Dist Tot Dist Heading (true) Name
O LPPT APT - 0 ft / 0 m 38.77856˚ -9.13515˚ - 0 nm - Lisboa
XAMAX FIX - 15,700 ft / 4,785 m 40.03111˚ -8.53611˚ 80 nm 80 nm 20° / 20° -
MANIK FIX A5 (AWY-LO) 9,500 ft / 2,896 m 40.69194˚ -8.61611˚ 39 nm 120 nm 355° / 355° -
O LPPR APT - 0 ft / 0 m 41.24793˚ -8.68122˚ 33 nm 153 nm 355° / 355° Porto

Altitude Profile

Advertisement - Login to hide

LPPT

Details ICAO LPPT (LIS)
Name Lisboa
Region Portugal
Timezone Europe/Lisbon (UTC+0.0)
Stats Elevation 374 ft / 114 m (AMSL)
Location 38.778559° -9.135146°
Runways 2
Magnetic Variation 2.373° W

METAR

LPPT 180930Z 05003KT 020V090 CAVOK 12/07 Q1020

Decode

TAF

TAF LPPT 180500Z 1806/1912 VRB03KT CAVOK BECMG 1806/1809 07007KT PROB30 1806/1809 3000 BR SCT002 BECMG 1817/1820 34007KT BECMG 1900/1903 04005KT

Decode

Departure Runways

ID Width Length Bearing (true) Bearing (mag) Surface Threshold Offset Overrun Length
03 148 ft / 45 m 12,518 ft / 3,815 m 22.70° 25.07° Asphalt 296 ft / 90 m 0 ft / 0 m
17 148 ft / 45 m 7,922 ft / 2,415 m 168.38° 170.75° Asphalt 0 ft / 0 m 0 ft / 0 m
21 148 ft / 45 m 12,518 ft / 3,815 m 202.72° 205.09° Asphalt 1,969 ft / 600 m 0 ft / 0 m
35 148 ft / 45 m 7,922 ft / 2,415 m 348.38° 350.75° Asphalt 492 ft / 150 m 0 ft / 0 m

LPPR

Details ICAO LPPR (OPO)
Name Porto
Region Portugal
Timezone Europe/Lisbon (UTC+0.0)
Stats Elevation 228 ft / 69 m (AMSL)
Location 41.247932° -8.681221°
Runways 1
Magnetic Variation 2.349° W

METAR

LPPR 180930Z VRB02KT CAVOK 14/07 Q1020

Decode

TAF

TAF LPPR 180500Z 1806/1906 VRB03KT 5000 BR NSC BECMG 1806/1808 09007KT CAVOK PROB30 1806/1808 2000 BR NSC PROB30 1813/1820 34007KT

Decode

Destination Runways

ID Width Length Bearing (true) Bearing (mag) Surface Threshold Offset Overrun Length
17 148 ft / 45 m 11,451 ft / 3,490 m 168.88° 171.23° Asphalt 984 ft / 300 m 220 ft / 67 m
35 148 ft / 45 m 11,451 ft / 3,490 m 348.89° 351.24° Asphalt 492 ft / 150 m 370 ft / 113 m

Approach Navaids

Runway Type Ident Frequency Range Bearing (true) Bearing (mag) Slope Elevation
17 Localiser PR 109.90 MHz 18 nm / 33 km 168.87° 171.22° - 228 ft / 69 m (AMSL)
17 Glidescope PR 109.90 MHz 10 nm / 19 km 168.88° 171.23° 2.72° 228 ft / 69 m (AMSL)
17 DME PR 109.90 MHz 18 nm / 33 km - - - 228 ft / 69 m (AMSL)

Popular Alternatives